FW1222 Weather Reports


time (UTC)temp
F
wind
direction
speed
knots
gust
knots
rain 1hr
in
rain 24hr
in
rain mn
in
humidity
%
barometer
mb
20260503004507 79 146 0.0 0.0 0.00 0.00 0.00 21 1017.4
20260503003003 80 146 0.0 0.0 0.00 0.00 0.00 21 1017.5
20260503001502 80 146 0.0 0.0 0.00 0.00 0.00 20 1017.5
20260503000110 81 146 0.0 0.0 0.00 0.00 0.00 21 1017.7
20260502234556 82 146 0.0 0.0 0.00 0.00 0.00 21 1017.8
20260502233052 84 146 0.0 0.0 0.00 0.00 0.00 20 1018.1
20260502231548 87 146 0.0 0.0 0.00 0.00 0.00 19 1018.4
20260502230044 90 146 0.0 0.0 0.00 0.00 0.00 17 1018.4
20260502224544 91 146 0.0 0.0 0.00 0.00 0.00 18 1018.4
20260502223041 91 146 0.0 0.0 0.00 0.00 0.00 17 1018.8
20260502221539 90 146 0.0 0.0 0.00 0.00 0.00 17 1019.1
20260502220037 90 146 0.0 0.0 0.00 0.00 0.00 16 1019.3
20260502214536 91 146 0.0 0.0 0.00 0.00 0.00 17 1019.5
20260502213036 92 146 0.0 0.0 0.00 0.00 0.00 17 1019.7
20260502211538 92 146 0.0 0.0 0.00 0.00 0.00 17 1019.7
20260502210031 93 146 0.0 0.0 0.00 0.00 0.00 17 1020.0
20260502204529 90 146 0.0 0.0 0.00 0.00 0.00 19 1020.2
20260502203023 88 146 0.0 0.0 0.00 0.00 0.00 20 1020.5
20260502201520 87 146 0.0 0.0 0.00 0.00 0.00 20 1020.7
20260502200019 86 146 0.0 0.0 0.00 0.00 0.00 22 1021.0
20260502194518 85 146 0.0 0.0 0.00 0.00 0.00 23 1021.2
20260502193019 85 146 0.0 0.0 0.00 0.00 0.00 19 1021.4
20260502191521 83 146 0.0 0.0 0.00 0.00 0.00 23 1021.8
20260502190017 81 146 0.0 0.0 0.00 0.00 0.00 25 1022.0
20260502184527 80 146 0.0 0.0 0.00 0.00 0.00 23 1022.2
20260502183020 79 146 0.0 0.0 0.00 0.00 0.00 27 1022.5
20260502181517 77 146 0.0 0.0 0.00 0.00 0.00 27 1022.9
20260502163021 60 146 0.0 0.0 0.00 0.00 0.00 41 1024.6
20260502161514 58 146 0.0 0.0 0.00 0.00 0.00 42 1024.7
20260502151513 48 146 0.0 0.0 0.00 0.00 0.00 58 1025.4
20260502123005 29 146 0.0 0.0 0.00 0.00 0.00 75 1025.1
20260502121505 29 146 0.0 0.0 0.00 0.00 0.00 76 1025.0
20260502113055 31 146 0.0 0.0 0.00 0.00 0.00 73 1024.8
20260502111555 32 146 0.0 0.0 0.00 0.00 0.00 75 1024.8
20260502110051 32 146 0.0 0.0 0.00 0.00 0.00 73 1024.7
20260502103050 33 146 0.0 0.0 0.00 0.00 0.00 74 1024.7
20260502101549 33 146 0.0 0.0 0.00 0.00 0.00 74 1024.8
20260502071524 41 146 0.0 0.0 0.00 0.00 0.00 60 1024.2
20260502070023 41 146 0.0 0.0 0.00 0.00 0.00 61 1024.1
20260502063018 42 146 0.0 0.0 0.00 0.00 0.00 59 1023.7
20260502061516 42 146 0.0 0.0 0.00 0.00 0.00 60 1023.5
20260502060014 42 146 0.0 0.0 0.00 0.00 0.00 61 1023.4
20260502053015 42 146 0.0 0.0 0.00 0.00 0.00 60 1023.2
20260502051511 42 146 0.0 0.0 0.00 0.00 0.00 61 1023.0
20260502050010 43 146 0.0 0.0 0.00 0.00 0.00 53 1022.9
20260502043102 48 146 0.0 0.0 0.00 0.00 0.00 45 1022.8
20260502041558 51 146 0.0 0.0 0.00 0.00 0.00 39 1022.7
20260502040055 53 146 0.0 0.0 0.00 0.00 0.00 39 1022.6
20260502033044 57 146 0.0 0.0 0.00 0.00 0.00 35 1022.1
20260502031540 59 146 0.0 0.0 0.00 0.00 0.00 33 1021.9
20260502030042 60 146 0.0 0.0 0.00 0.00 0.00 31 1021.6
20260502023037 61 146 0.0 0.0 0.00 0.00 0.00 31 1021.4
20260502021534 62 146 0.0 0.0 0.00 0.00 0.00 31 1021.2
20260502020028 65 146 0.0 0.0 0.00 0.00 0.00 30 1021.1
20260502013018 71 146 0.0 0.0 0.00 0.00 0.00 27 1021.1
20260502011514 73 146 0.0 0.0 0.00 0.00 0.00 24 1021.2
20260502010010 74 146 0.0 0.0 0.00 0.00 0.00 23 1021.2